Regional Weather Roundup
Issued by NWS

Home | Current Version | Previous Version | Text Only | Print | Product List | Glossary Off
Versions: 1 2 3 4 5 6 7 8 9 10 11 12 13 14 15 16 17 18 19 20 21 22 23 24 25 26 27 28 29 30 31 32 33 34 35 36 37 38 39 40 41 42 43 44 45 46 47 48 49

000
ASUS45 KBOI 020210
RWRID

IDAHO REGIONAL WEATHER ROUNDUP
NATIONAL WEATHER SERVICE BOISE ID
800 PM MDT TUE SEP 01 2015

NOTE: "FAIR" INDICATES FEW OR NO CLOUDS BELOW 12000 FEET
WITH NO SIGNIFICANT WEATHER AND/OR OBSTRUCTIONS TO VISIBILITY

IDZ012-014-020300-
SOUTHWEST IDAHO


CITY           SKY/WX    TMP DP  RH WIND       PRES   REMARKS
BOISE          CLEAR     84  39  20 NW5       29.74F
CALDWELL         N/A     82  45  26 CALM      29.73F
MOUNTAIN HOME  PTCLDY    85  42  21 SW6       29.74F
$$

IDZ016-017-020300-
SOUTHCENTRAL IDAHO


CITY           SKY/WX    TMP DP  RH WIND       PRES   REMARKS
BURLEY         PTCLDY    78  47  33 CALM      29.82F
JEROME         CLEAR     73  43  33 NE3       29.82F
TWIN FALLS     CLEAR     78  34  20 W3        29.83F
$$

IDZ019>023-020300-
SOUTHEAST IDAHO


CITY           SKY/WX    TMP DP  RH WIND       PRES   REMARKS
IDAHO FALLS    CLEAR     79  33  19 S8        29.90S
POCATELLO      CLEAR     77  38  24 E5        29.87F
REXBURG        CLEAR     76  33  21 S7        29.91S
$$

IDZ006-010-011-018-031-032-020300-
CENTRAL IDAHO MOUNTAINS


CITY           SKY/WX    TMP DP  RH WIND       PRES   REMARKS
MCCALL         CLEAR     70  37  29 S9        29.88F
HAILEY         PTCLDY    68  41  37 S6        29.93S
STANLEY          N/A     68  27  21 S6        29.99F
SALMON         MOCLDY    75  46  35 SW8       29.74R
CHALLIS        CLOUDY    80  21  11 SW10      29.86S
$$

IDZ002-004-006-007-026-020300-
NORTHERN IDAHO


CITY           SKY/WX    TMP DP  RH WIND       PRES   REMARKS
LEWISTON       PTCLDY    77  37  23 NW9       29.72S
LOWELL           N/A     67  58  72 CALM      29.68S
COEUR D`ALENE  MOCLDY    70  34  26 S7        29.75S
MULLAN PASS    MOCLDY    57  28  33 SW7       29.92F
$$


USA.gov is the U.S. government's official web portal to all federal, state and local government web resources and services.